Home   Weather   Leesburg   Past weeks

Flag for USA Past Weather in Leesburg, Virginia, USA — Yesterday and Last 2 Weeks

68 °F


Feels Like: 68 °F
Forecast: 53 / 75 °F
Wind: 13 mph from South

Location: Leesburg / Godfrey

Current Time: Oct 21, 2016 at 5:19:51 AM

Latest Report: Oct 21, 2016 at 4:55 AM

Visibility: 10 mi

Pressure: 29.78 "Hg

Humidity: 94%

Dew Point: 66 °F

Location of LeesburgLocation

Past Weather in Leesburg — Graph


Leesburg Temperature Yesterday

Maximum temperature yesterday: 84 °F (at 2:55 PM)
Minimum temperature yesterday: 68 °F (at 6:15 AM)
Average temperature yesterday: 75 °F

High & Low Weather Summary for the Past Weeks

High88 °F (Oct 19, 2:15 PM)100% (Oct 6, 4:15 AM)30.49 "Hg (Oct 6, 4:15 AM)
Low37 °F (Oct 11, 5:55 AM)37% (Oct 10, 3:55 PM)29.79 "Hg (Oct 21, 4:15 AM)
Average61 °F81%30.18 "Hg
* Reported Oct 6 4:15 AM — Oct 21 4:15 AM, Leesburg, Weather by CustomWeather, © 2016

Note: Actual official high and low records may vary slightly from our data, if they occured in-between our weather recording intervals... More about our weather records


Leesburg Weather History for the Previous 24 Hours

Scroll right to see more
Time TempWeatherWind HumidityBarometerVisibility
4:15 AM
Fri, Oct 21
68 °FOvercast.8 mph94%29.79 "Hg10 mi
3:55 AM70 °FOvercast.6 mph94%29.80 "Hg10 mi
3:35 AM70 °FOvercast.5 mph94%29.81 "Hg10 mi
3:15 AM70 °FOvercast.3 mph94%29.81 "Hg10 mi
2:55 AM70 °FPassing clouds.5 mph94%29.82 "Hg10 mi
2:35 AM70 °FPartly cloudy.5 mph94%29.83 "Hg10 mi
2:15 AM70 °FMostly cloudy.7 mph94%29.84 "Hg10 mi
1:55 AM70 °FPassing clouds.7 mph94%29.85 "Hg10 mi
1:35 AM70 °FMostly cloudy.7 mph94%29.85 "Hg10 mi
1:15 AM70 °FPassing clouds.9 mph94%29.86 "Hg10 mi
12:55 AM72 °FPassing clouds.13 mph88%29.85 "Hg10 mi
12:35 AM72 °FPartly cloudy.14 mph88%29.86 "Hg10 mi
12:15 AM72 °FPassing clouds.14 mph88%29.86 "Hg10 mi
11:55 PM
Thu, Oct 20
72 °FClear.15 mph88%29.87 "Hg10 mi
11:35 PM72 °FClear.14 mph88%29.88 "Hg10 mi
11:15 PM72 °FClear.15 mph94%29.88 "Hg10 mi
10:55 PM73 °FClear.15 mph89%29.88 "Hg10 mi
10:15 PM73 °FClear.15 mph89%29.89 "Hg10 mi
9:55 PM73 °FClear.14 mph89%29.90 "Hg10 mi
9:35 PM75 °FClear.13 mph83%29.90 "Hg10 mi
9:15 PM75 °FClear.15 mph83%29.90 "Hg10 mi
8:55 PM77 °FClear.16 mph79%29.90 "Hg10 mi
8:15 PM77 °FClear.14 mph79%29.91 "Hg10 mi
7:55 PM79 °FClear.14 mph74%29.91 "Hg10 mi
7:35 PM79 °FClear.10 mph74%29.92 "Hg10 mi
7:15 PM79 °FClear.10 mph74%29.92 "Hg10 mi
6:55 PM79 °FClear.9 mph74%29.91 "Hg10 mi
6:35 PM81 °FClear.8 mph74%29.91 "Hg10 mi
6:15 PM81 °FSunny.8 mph74%29.92 "Hg10 mi
5:55 PM81 °FSunny.8 mph74%29.92 "Hg10 mi
5:35 PM82 °FSunny.10 mph66%29.92 "Hg10 mi
5:15 PM82 °FScattered clouds.12 mph66%29.92 "Hg10 mi
4:55 PM82 °FScattered clouds.12 mph66%29.92 "Hg10 mi
4:35 PM84 °FPartly sunny.13 mph62%29.93 "Hg10 mi
4:15 PM84 °FScattered clouds.9 mph62%29.93 "Hg10 mi
3:55 PM84 °FScattered clouds.9 mph62%29.94 "Hg10 mi
3:15 PM82 °FScattered clouds.7 mph66%29.95 "Hg10 mi
2:55 PM84 °FPartly sunny.9 mph62%29.96 "Hg10 mi
2:35 PM82 °FScattered clouds.10 mph66%29.96 "Hg10 mi
2:15 PM82 °FScattered clouds.9 mph66%29.98 "Hg10 mi
1:55 PM82 °FScattered clouds.12 mph66%29.98 "Hg10 mi
1:35 PM82 °FScattered clouds.10 mph66%29.99 "Hg10 mi
1:15 PM81 °FSunny.10 mph70%30.00 "Hg10 mi
12:55 PM81 °FScattered clouds.12 mph66%30.01 "Hg10 mi
12:35 PM79 °FSunny.13 mph70%30.02 "Hg10 mi
12:15 PM79 °FSunny.6 mph65%30.03 "Hg10 mi
11:55 AM77 °FSunny.6 mph69%30.04 "Hg10 mi
11:35 AM75 °FSunny.5 mph69%30.05 "Hg10 mi
11:15 AM73 °FSunny.5 mph74%30.05 "Hg10 mi
10:55 AM72 °FScattered clouds.No wind78%30.06 "Hg10 mi
10:35 AM72 °FBroken clouds.5 mph73%30.07 "Hg10 mi
10:15 AM70 °FPartly sunny.No wind78%30.07 "Hg10 mi
9:55 AM70 °FOvercast.No wind78%30.08 "Hg10 mi
9:15 AM70 °FPartly sunny.3 mph78%30.09 "Hg10 mi
8:55 AM70 °FScattered clouds.3 mph78%30.08 "Hg10 mi
8:15 AM68 °FPartly sunny.3 mph83%30.08 "Hg10 mi
7:55 AM68 °FPartly sunny.No wind83%30.07 "Hg10 mi
7:35 AM68 °FPartly sunny.3 mph83%30.07 "Hg10 mi
7:15 AM68 °FPassing clouds.No wind83%30.07 "Hg10 mi
6:55 AM68 °FPassing clouds.3 mph83%30.07 "Hg10 mi
6:15 AM68 °FPassing clouds.3 mph88%30.07 "Hg10 mi
5:55 AM70 °FPartly cloudy.5 mph83%30.06 "Hg10 mi
5:35 AM70 °FMostly cloudy.3 mph88%30.06 "Hg10 mi
5:15 AM70 °FOvercast.5 mph88%30.06 "Hg10 mi
Weather by CustomWeather, © 2016

See weather overviewHow to use our weather pages